This is the latest recevied weather packets stored in our database for station/object N4RCT. If no packets are shown the sender has not sent any weather packets the latest 10 day(s).
| Time | Temp. | Humidity | Pressure | Rain* | Wind** | Luminosity | Snow |
|---|---|---|---|---|---|---|---|
| 1777135214 | 18.33° C | 98% | 1010.2 hPa | 3.56 mm | - | 47 W/m² | - |
| 1777134911 | 18.89° C | 97% | 1010.3 hPa | 4.83 mm | - | 52 W/m² | - |
| 1777134608 | 18.89° C | 96% | 1010.3 hPa | 1.27 mm | - | 54 W/m² | - |
| 1777134304 | 18.89° C | 95% | 1010.3 hPa | 0 mm | - | 42 W/m² | - |
| 1777134001 | 19.44° C | 93% | 1010.1 hPa | 0 mm | - | 34 W/m² | - |
| 1777133697 | 19.44° C | 92% | 1010 hPa | 0 mm | - | 17 W/m² | - |
| 1777133396 | 20° C | 91% | 1010 hPa | 0 mm | - | 20 W/m² | - |
| 1777133091 | 19.44° C | 91% | 1010.2 hPa | 0 mm | - | 31 W/m² | - |
| 1777132787 | 19.44° C | 91% | 1010 hPa | 0 mm | - | 39 W/m² | - |
| 1777132484 | 19.44° C | 90% | 1010.2 hPa | 0 mm | - | 38 W/m² | - |
| 1777132180 | 20° C | 90% | 1010 hPa | 0 mm | - | 39 W/m² | - |
| 1777131876 | 20° C | 89% | 1010 hPa | 0 mm | - | 38 W/m² | - |
| 1777131569 | 20° C | 89% | 1009.9 hPa | 0 mm | - | 35 W/m² | - |
| 1777131268 | 20° C | 88% | 1009.7 hPa | 0 mm | - | 43 W/m² | - |
| 1777130962 | 20.56° C | 88% | 1010 hPa | 0 mm | - | 56 W/m² | - |
| 1777130658 | 20.56° C | 87% | 1009.8 hPa | 0 mm | - | 69 W/m² | - |
| 1777130355 | 20.56° C | 87% | 1009.7 hPa | 0 mm | - | 80 W/m² | - |
| 1777130052 | 20.56° C | 87% | 1009.7 hPa | 0 mm | - | 115 W/m² | - |
| 1777129748 | 20.56° C | 87% | 1009.5 hPa | 0 mm | - | 92 W/m² | - |
| 1777129442 | 20.56° C | 86% | 1009.4 hPa | 0 mm | - | 112 W/m² | - |
| 1777129136 | 20.56° C | 86% | 1009.6 hPa | 0 mm | - | 157 W/m² | - |
| 1777128832 | 21.11° C | 85% | 1009.3 hPa | 0 mm | - | 189 W/m² | - |
| 1777128529 | 20.56° C | 86% | 1009.4 hPa | 0 mm | - | 199 W/m² | - |
| 1777128226 | 20.56° C | 86% | 1009.1 hPa | 0 mm | - | 186 W/m² | - |
| 1777127924 | 20° C | 87% | 1009.1 hPa | 0 mm | - | 178 W/m² | - |
* Rain latest hour (hover to see other rain measurements)
** Current wind speed in m/s (hover to see current wind gust speed)